| time (UTC) | temp F | wind direction | speed MPH | gust MPH | rain 1hr in | rain 24hr in | rain mn in | humidity % | barometer mb |
| 20260902210045 | 65 | 146 | 1.0 | 6.0 | 0.00 | 0.15 | 0.15 | 90 | 1019.6 |
| 20260902204543 | 65 | 87 | 3.0 | 8.0 | 0.00 | 0.15 | 0.15 | 90 | 1019.6 |
| 20260902203041 | 66 | 92 | 2.0 | 6.0 | 0.04 | 0.15 | 0.15 | 90 | 1019.6 |
| 20260902201548 | 66 | 117 | 2.0 | 7.0 | 0.08 | 0.15 | 0.15 | 90 | 1019.7 |
| 20260902200040 | 67 | 178 | 2.0 | 5.0 | 0.10 | 0.15 | 0.15 | 90 | 1019.5 |
| 20260902194539 | 67 | 99 | 2.0 | 5.0 | 0.14 | 0.15 | 0.15 | 89 | 1019.7 |
| 20260902193040 | 67 | 78 | 0.0 | 2.0 | 0.09 | 0.10 | 0.10 | 88 | 1020.4 |
| 20260902191537 | 68 | 74 | 1.0 | 3.0 | 0.06 | 0.07 | 0.07 | 87 | 1020.2 |
| 20260902190035 | 68 | 49 | 1.0 | 4.0 | 0.04 | 0.05 | 0.05 | 86 | 1020.5 |
| 20260902184543 | 68 | 5 | 1.0 | 6.0 | 0.00 | 0.01 | 0.01 | 84 | 1021.0 |
| 20260902183049 | 69 | 63 | 1.0 | 7.0 | 0.00 | 0.01 | 0.01 | 83 | 1020.3 |
| 20260902181549 | 69 | 92 | 2.0 | 8.0 | 0.00 | 0.01 | 0.01 | 83 | 1020.0 |
| 20260902180054 | 69 | 92 | 2.0 | 9.0 | 0.00 | 0.01 | 0.01 | 83 | 1020.0 |
| 20260902174540 | 69 | 87 | 3.0 | 9.0 | 0.00 | 0.04 | 0.01 | 83 | 1020.4 |
| 20260902173046 | 70 | 157 | 2.0 | 8.0 | 0.00 | 0.04 | 0.01 | 82 | 1020.4 |
| 20260902171544 | 69 | 29 | 2.0 | 9.0 | 0.00 | 0.04 | 0.01 | 83 | 1020.4 |
| 20260902170046 | 69 | 128 | 3.0 | 8.0 | 0.00 | 0.04 | 0.01 | 84 | 1020.5 |
| 20260902164551 | 68 | 90 | 3.0 | 8.0 | 0.00 | 0.05 | 0.01 | 84 | 1020.5 |
| 20260902163046 | 68 | 109 | 3.0 | 9.0 | 0.00 | 0.05 | 0.01 | 84 | 1020.6 |
| 20260902161541 | 67 | 84 | 4.0 | 11.0 | 0.00 | 0.05 | 0.01 | 85 | 1020.7 |
| 20260902160037 | 67 | 64 | 3.0 | 8.0 | 0.00 | 0.05 | 0.01 | 85 | 1021.0 |
| 20260902154557 | 68 | 91 | 4.0 | 11.0 | 0.00 | 0.11 | 0.01 | 84 | 1020.8 |
| 20260902153040 | 67 | 86 | 4.0 | 11.0 | 0.00 | 0.11 | 0.01 | 85 | 1020.8 |
| 20260902151540 | 67 | 90 | 4.0 | 8.0 | 0.00 | 0.11 | 0.01 | 85 | 1020.9 |
| 20260902150045 | 67 | 111 | 4.0 | 10.0 | 0.00 | 0.11 | 0.01 | 84 | 1021.0 |
| 20260902144547 | 68 | 72 | 3.0 | 10.0 | 0.00 | 0.13 | 0.01 | 84 | 1020.7 |
| 20260902143041 | 68 | 83 | 2.0 | 9.0 | 0.00 | 0.13 | 0.01 | 85 | 1020.8 |
| 20260902141539 | 67 | 68 | 1.0 | 4.0 | 0.00 | 0.13 | 0.01 | 87 | 1020.7 |
| 20260902140041 | 65 | 0 | 0.0 | 4.0 | 0.00 | 0.13 | 0.01 | 88 | 1020.9 |
| 20260902134541 | 65 | 106 | 1.0 | 5.0 | 0.00 | 0.13 | 0.01 | 89 | 1021.0 |
| 20260902133047 | 64 | 111 | 2.0 | 6.0 | 0.00 | 0.13 | 0.01 | 91 | 1020.5 |
| 20260902131544 | 63 | 264 | 2.0 | 8.0 | 0.00 | 0.13 | 0.01 | 92 | 1020.5 |
| 20260902130044 | 62 | 46 | 2.0 | 5.0 | 0.00 | 0.13 | 0.01 | 92 | 1020.3 |
| 20260902124539 | 62 | 81 | 3.0 | 7.0 | 0.00 | 0.13 | 0.01 | 92 | 1020.6 |
| 20260902123035 | 62 | 111 | 2.0 | 5.0 | 0.00 | 0.13 | 0.01 | 92 | 1020.4 |
| 20260902121539 | 62 | 0 | 1.0 | 5.0 | 0.00 | 0.13 | 0.01 | 92 | 1020.3 |
| 20260902120040 | 61 | 80 | 2.0 | 5.0 | 0.00 | 0.13 | 0.01 | 92 | 1020.3 |
| 20260902114538 | 62 | 68 | 2.0 | 7.0 | 0.00 | 0.13 | 0.01 | 92 | 1020.3 |
| 20260902113042 | 62 | 51 | 2.0 | 5.0 | 0.00 | 0.13 | 0.01 | 92 | 1020.5 |
| 20260902111540 | 62 | 69 | 2.0 | 7.0 | 0.00 | 0.13 | 0.01 | 92 | 1020.3 |
| 20260902110039 | 62 | 59 | 2.0 | 5.0 | 0.00 | 0.13 | 0.01 | 92 | 1020.2 |
| 20260902104544 | 62 | 87 | 2.0 | 7.0 | 0.00 | 0.13 | 0.01 | 92 | 1020.2 |
| 20260902103045 | 62 | 23 | 1.0 | 5.0 | 0.01 | 0.13 | 0.01 | 92 | 1019.9 |
| 20260902101544 | 62 | 86 | 1.0 | 7.0 | 0.01 | 0.13 | 0.01 | 92 | 1020.0 |
| 20260902100039 | 62 | 47 | 0.0 | 6.0 | 0.01 | 0.13 | 0.01 | 92 | 1019.8 |
| 20260902094538 | 62 | 28 | 1.0 | 7.0 | 0.01 | 0.13 | 0.01 | 92 | 1019.7 |
| 20260902093043 | 62 | 0 | 0.0 | 4.0 | 0.00 | 0.12 | 0.00 | 91 | 1019.7 |
| 20260902091545 | 62 | 61 | 2.0 | 5.0 | 0.00 | 0.12 | 0.00 | 91 | 1019.7 |
| 20260902090039 | 62 | 0 | 0.0 | 4.0 | 0.00 | 0.12 | 0.00 | 91 | 1019.6 |
| 20260902084548 | 63 | 96 | 1.0 | 4.0 | 0.00 | 0.12 | 0.00 | 91 | 1019.6 |
| 20260902083044 | 63 | 40 | 2.0 | 7.0 | 0.00 | 0.12 | 0.00 | 91 | 1019.4 |
| 20260902081543 | 63 | 0 | 1.0 | 4.0 | 0.00 | 0.12 | 0.00 | 91 | 1019.2 |
| 20260902080035 | 63 | 0 | 1.0 | 7.0 | 0.00 | 0.12 | 0.00 | 91 | 1018.8 |
| 20260902074538 | 63 | 62 | 1.0 | 5.0 | 0.00 | 0.12 | 0.00 | 91 | 1018.5 |
| 20260902073037 | 63 | 55 | 2.0 | 8.0 | 0.00 | 0.12 | 0.00 | 91 | 1018.5 |
| 20260902071544 | 63 | 126 | 1.0 | 8.0 | 0.00 | 0.12 | 0.00 | 91 | 1018.5 |
| 20260902070040 | 63 | 85 | 0.0 | 5.0 | 0.00 | 0.12 | 0.00 | 91 | 1018.7 |
| 20260902064539 | 63 | 49 | 0.0 | 4.0 | 0.00 | 0.32 | 0.00 | 91 | 1018.8 |
| 20260902063039 | 63 | 82 | 0.0 | 5.0 | 0.00 | 0.32 | 0.00 | 91 | 1018.8 |
| 20260902061547 | 63 | 0 | 0.0 | 3.0 | 0.00 | 0.32 | 0.00 | 91 | 1018.9 |
| 20260902060039 | 63 | 211 | 3.0 | 8.0 | 0.00 | 0.32 | 0.00 | 91 | 1018.9 |
| 20260902054541 | 63 | 94 | 2.0 | 7.0 | 0.00 | 0.51 | 0.00 | 90 | 1018.9 |
| 20260902053041 | 64 | 105 | 1.0 | 5.0 | 0.00 | 0.51 | 0.00 | 90 | 1018.8 |
| 20260902051544 | 64 | 80 | 1.0 | 4.0 | 0.00 | 0.51 | 0.00 | 90 | 1018.8 |
| 20260902050052 | 64 | 69 | 0.0 | 4.0 | 0.00 | 0.51 | 0.00 | 90 | 1018.9 |
| 20260902044603 | 64 | 89 | 1.0 | 4.0 | 0.00 | 0.70 | 0.00 | 90 | 1018.7 |
| 20260902043039 | 64 | 74 | 1.0 | 5.0 | 0.00 | 0.70 | 0.00 | 90 | 1018.6 |
| 20260902041540 | 64 | 278 | 0.0 | 9.0 | 0.00 | 0.70 | 0.00 | 90 | 1018.4 |
| 20260902040046 | 64 | 69 | 3.0 | 9.0 | 0.00 | 0.70 | 0.00 | 90 | 1018.3 |
| 20260902034551 | 64 | 55 | 3.0 | 15.0 | 0.00 | 0.70 | 0.70 | 90 | 1018.3 |
| 20260902033040 | 65 | 140 | 2.0 | 9.0 | 0.00 | 0.70 | 0.70 | 90 | 1018.0 |
| 20260902031544 | 65 | 85 | 4.0 | 9.0 | 0.00 | 0.70 | 0.70 | 89 | 1017.8 |
| 20260902030040 | 65 | 96 | 3.0 | 10.0 | 0.00 | 0.70 | 0.70 | 89 | 1017.4 |
| 20260902024547 | 65 | 105 | 3.0 | 9.0 | 0.00 | 0.70 | 0.70 | 89 | 1017.8 |
| 20260902023043 | 65 | 68 | 2.0 | 9.0 | 0.00 | 0.70 | 0.70 | 89 | 1017.8 |
| 20260902021549 | 65 | 96 | 2.0 | 12.0 | 0.00 | 0.70 | 0.70 | 89 | 1017.4 |
| 20260902020044 | 65 | 44 | 3.0 | 9.0 | 0.00 | 0.70 | 0.70 | 88 | 1017.2 |
| 20260902014542 | 65 | 290 | 5.0 | 12.0 | 0.00 | 0.70 | 0.70 | 88 | 1016.6 |
| 20260902013039 | 66 | 40 | 5.0 | 11.0 | 0.00 | 0.70 | 0.70 | 88 | 1016.5 |
| 20260902011537 | 66 | 103 | 5.0 | 13.0 | 0.00 | 0.70 | 0.70 | 88 | 1016.5 |
| 20260902010044 | 66 | 107 | 5.0 | 14.0 | 0.00 | 0.70 | 0.70 | 88 | 1016.4 |
| 20260902004541 | 67 | 106 | 2.0 | 14.0 | 0.00 | 0.70 | 0.70 | 89 | 1016.3 |
| 20260902003043 | 67 | 100 | 8.0 | 15.0 | 0.00 | 0.70 | 0.70 | 89 | 1016.1 |
| 20260902001538 | 67 | 80 | 8.0 | 16.0 | 0.00 | 0.70 | 0.70 | 89 | 1015.6 |
| 20260902000040 | 68 | 86 | 3.0 | 14.0 | 0.00 | 0.70 | 0.70 | 90 | 1015.6 |
| 20260901234539 | 68 | 91 | 5.0 | 11.0 | 0.00 | 0.70 | 0.70 | 90 | 1015.8 |
| 20260901233041 | 69 | 69 | 6.0 | 10.0 | 0.00 | 0.70 | 0.70 | 90 | 1015.6 |
| 20260901231540 | 69 | 131 | 5.0 | 15.0 | 0.00 | 0.70 | 0.70 | 90 | 1015.5 |
| 20260901230041 | 70 | 84 | 3.0 | 12.0 | 0.00 | 0.70 | 0.70 | 90 | 1015.2 |
| 20260901224540 | 71 | 82 | 2.0 | 12.0 | 0.00 | 0.70 | 0.70 | 90 | 1015.1 |
| 20260901223046 | 71 | 107 | 5.0 | 13.0 | 0.00 | 0.70 | 0.70 | 90 | 1014.5 |
| 20260901221539 | 72 | 80 | 5.0 | 14.0 | 0.00 | 0.70 | 0.70 | 90 | 1014.6 |
| 20260901220044 | 74 | 131 | 5.0 | 10.0 | 0.00 | 0.70 | 0.70 | 90 | 1014.4 |
| 20260901214542 | 74 | 126 | 2.0 | 7.0 | 0.00 | 0.70 | 0.70 | 89 | 1014.5 |
| 20260901213101 | 75 | 95 | 2.0 | 5.0 | 0.00 | 0.70 | 0.70 | 89 | 1014.6 |
| 20260901211538 | 76 | 123 | 2.0 | 4.0 | 0.00 | 0.70 | 0.70 | 89 | 1014.3 |